[[{"header":{"parameterUnit":"m.s-1","parameterCategory":1,"la1":30.2991,"la2":30.254,"lo1":-89.0895,"lo2":-89.0444,"dy":0.0017,"dx":0.0017,"nx":28,"ny":28,"refTime":"2025-02-24T03:00:00:Z","depth":0,"parameterNumber":2,"parameterNumberName":"U-component_of_WINDS"},"data":[0,0,0,0,0,0,0,0,0,0,0,0,0,0,0,0,0,0,0,0,0,0,0,0,0,0,0,0,0,0,0,0,0,0,0,0,0,0,0,0,0,0,0,0,0,0,0,0,0,0,0,0,0,0,0,0,0,0,-3.9321,-3.9322,0,-3.9484,-3.9486,-3.9487,-3.9427,-3.9423,-3.9419,-3.9416,-3.9588,-3.9596,-3.9604,0,0,0,0,0,0,0,0,0,0,0,0,0,-3.8962,-3.8968,-3.932,-3.9323,-3.9325,-3.9483,-3.9486,-3.9488,-3.9427,-3.9423,-3.9418,-3.9414,-3.9585,-3.9595,-3.9604,0,0,0,0,0,0,0,0,0,0,0,0,0,-3.9121,-3.8971,-3.932,-3.9313,-3.9314,-3.9483,-3.9486,-3.9488,-3.9428,-3.9423,-3.9417,-3.9412,-3.9582,-3.9594,-3.9606,-3.9792,0,0,-3.9643,-3.9648,0,0,0,0,0,0,0,0,-3.9112,-3.9134,-3.9312,-3.9314,-3.9316,-3.9429,-3.9422,-3.959,-3.943,-3.9385,-3.9416,-3.9409,-3.954,-3.9555,-3.9598,-3.98,-3.9808,-3.9644,-3.9651,-3.9656,-3.966,0,0,0,0,0,0,0,-3.9101,-3.9126,-3.9385,-3.9315,-3.9317,-3.9304,-3.932,-3.9454,-3.9492,-3.9389,-3.9385,-3.9405,-3.954,-3.9587,-3.9602,-3.981,-3.9643,-3.9654,-3.9662,-3.9666,-4.0175,-4.0181,0,0,0,0,0,0,-3.9088,-3.9118,-3.938,-3.939,-3.9198,-3.9315,-3.9333,-3.9398,-3.949,-3.9499,-3.9409,-3.9401,-3.9569,-3.9588,-3.9608,-3.9834,-3.9656,-3.9668,-3.9674,-4.0169,-4.0177,-4.0183,0,0,0,0,0,0,-3.9081,-3.9112,-3.9373,-3.9253,-3.9285,-3.9327,-3.9401,-3.9405,-3.9451,-3.9506,-3.9513,-3.945,-3.9565,-3.9591,-3.9747,-3.9839,-3.9673,-3.9684,-4.0162,-4.0171,-4.018,-4.0286,0,0,0,0,0,0,-3.9071,-3.911,-3.918,-3.9255,-3.9292,-3.9509,-3.9406,-3.9412,-3.9472,-3.9463,-3.9546,-3.9554,-3.9563,-3.9729,-3.9759,-3.9852,-3.9693,-4.0154,-4.0166,-4.0177,-4.0275,-4.0298,-4.0318,0,0,0,0,0,-3.9058,-3.9204,-3.9184,-3.9216,-3.938,-3.9514,-3.9535,-3.9541,-3.9479,-3.9551,-3.9586,-3.9552,-3.9823,-3.9746,-3.9779,-3.9877,-4.0148,-4.0163,-4.0176,-4.0265,-4.0294,-4.0318,0,0,0,0,0,0,-3.9141,-3.9214,-3.9192,-3.9366,-3.9434,-3.9504,-3.9594,-3.957,-3.9659,-3.9647,-3.9651,-3.967,-3.9832,-3.9869,-3.9782,-4.0063,-3.9977,-3.9998,-4.0033,-4.0061,-4.0082,-4.0071,-3.9703,0,0,0,0,0,-3.9179,-3.928,-3.9339,-3.9487,-3.9522,-3.9553,-3.9611,-3.9609,-3.9681,-3.971,-3.9756,-3.9828,-3.9929,-3.9997,-4.0093,-4.0279,-4.0298,-4.0363,-4.0385,-4.0402,-4.0422,-4.0525,-4.0556,-4.023,-4.023,-4.0229,0,0,-3.926,-3.9312,-3.9376,-3.9505,-3.9558,-3.9665,-3.9577,-3.9694,-3.9774,-3.9728,-3.9878,-3.9915,-3.9995,-4.0168,-4.0246,-4.0205,-4.0515,-4.042,-4.0434,-4.0444,-4.0543,-4.0574,-4.0601,-4.0239,-4.0238,-4.0236,0,0,-3.9462,-3.9511,-3.964,-3.9694,-3.9774,-3.9793,-3.9824,-3.9898,-3.992,-4.007,-4.0039,-4.0134,-4.0308,-4.0368,-4.0421,-4.0645,-4.0618,-4.0676,-4.0791,-4.0892,-4.0917,-4.094,-4.1023,-4.1052,-4.0695,-4.0695,-4.0695,0,-3.9553,-3.9711,-3.971,-3.983,-3.9889,-3.985,-3.9982,-4.0035,-4.0143,-4.0186,-4.0136,-4.0355,-4.0407,-4.0594,-4.0648,-4.0691,-4.0729,-4.0668,-4.0913,-4.0936,-4.0958,-4.1037,-4.1068,-4.0702,-4.0701,-4.0701,-4.07,0,-3.982,-3.993,-4.0026,-4.013,-4.0199,-4.0324,-4.0344,-4.0415,-4.0406,-4.0431,-4.0586,-4.0646,-4.0755,-4.0798,-4.0792,-4.0985,-4.0957,-4.0911,-4.0824,-4.0996,-4.107,-4.11,-4.0712,-4.0709,-4.0707,-4.0706,0,0,-4.0081,-4.0182,-4.0218,-4.0265,-4.035,-4.0436,-4.056,-4.0665,-4.0727,-4.0802,-4.0908,-4.1056,-4.1014,-4.1074,-4.1074,-4.1162,-4.1339,-4.1105,-4.1107,-4.1149,-4.1559,-4.1595,-4.163,-4.132,-4.1326,-4.133,-4.1553,0,-4.0292,-4.0509,-4.0512,-4.0712,-4.0815,-4.0779,-4.0888,-4.0953,-4.0979,-4.1072,-4.1101,-4.1207,-4.1142,-4.1178,-4.1263,-4.13,-4.1422,-4.1283,-4.1422,-4.1427,-4.1405,-4.1669,-4.1708,-4.1915,-4.1582,-4.1587,-4.159,0,-4.0568,-4.0651,-4.0861,-4.0932,-4.0975,-4.1073,-4.117,-4.1257,-4.1331,-4.1344,-4.1411,-4.1398,-4.1527,-4.1434,-4.1613,-4.1518,-4.1575,-4.1601,-4.1609,-4.1625,-4.1521,-4.1694,-4.1981,-4.2013,-4.1636,-4.1632,-4.1629,0,-4.0741,-4.0905,-4.1053,-4.1094,-4.118,-4.1249,-4.1288,-4.1356,-4.1419,-4.1504,-4.1545,-4.1645,-4.17,-4.1778,-4.1792,-4.1723,-4.1973,-4.188,-4.199,-4.199,-4.2047,-4.2044,-4.235,-4.2078,-4.2078,-4.2077,-4.2076,0,-4.0978,-4.1109,-4.1132,-4.1223,-4.1368,-4.1371,-4.1516,-4.1549,-4.161,-4.1708,-4.1683,-4.1776,-4.1788,-4.1885,-4.1897,-4.2045,-4.207,-4.2086,-4.2088,-4.209,-4.2088,-4.2129,-4.2117,-4.2085,-4.2083,-4.2082,-4.208,0,-4.1197,-4.1217,-4.1376,-4.1443,-4.1464,-4.1568,-4.1627,-4.1715,-4.1738,-4.1863,-4.1893,-4.193,-4.2043,-4.2064,-4.2197,-4.2205,-4.2383,-4.2369,-4.2358,-4.2358,-4.2467,-4.2457,-4.2812,-4.286,-4.2555,-4.2557,-4.256,0,-4.1349,-4.1448,-4.1526,-4.1589,-4.1632,-4.1734,-4.1798,-4.1804,-4.1872,-4.1963,-4.2041,-4.2151,-4.2239,-4.2422,-4.2462,-4.2565,-4.2555,-4.2672,-4.257,-4.257,-4.256,-4.2556,-4.2567,-4.2693,-4.2696,-4.2699,-4.2701,0,-4.1616,-4.1621,-4.1713,-4.181,-4.1887,-4.1963,-4.2036,-4.209,-4.2106,-4.2184,-4.2298,-4.2366,-4.2502,-4.2613,-4.2715,-4.2757,-4.2734,-4.2732,-4.2763,-4.2768,-4.2759,-4.2768,-4.2415,-4.2725,-4.2722,-4.2721,-4.2719,-4.2718,-4.1809,-4.1896,-4.1965,-4.2069,-4.2123,-4.2192,-4.2278,-4.2311,-4.2406,-4.2517,-4.2514,-4.2641,-4.2713,-4.2847,-4.2896,-4.2996,-4.2959,-4.3003,-4.3015,-4.3027,-4.3039,-4.274,-4.3014,-4.3013,-4.3013,-4.3012,-4.3012,0,-4.2077,-4.2119,-4.2215,-4.2317,-4.2399,-4.2366,-4.2445,-4.2517,-4.2628,-4.2696,-4.2783,-4.2915,-4.3022,-4.307,-4.3176,-4.3247,-4.3239,-4.3275,-4.3272,-4.3282,-4.3064,-4.3028,-4.328,-4.328,-4.328,-4.328,-4.328,-4.328,-4.2227,-4.2374,-4.2387,-4.2562,-4.2603,-4.2725,-4.2773,-4.2837,-4.2892,-4.304,-4.3128,-4.3158,-4.3219,-4.3329,-4.3426,-4.3438,-4.3479,-4.3521,-4.3528,-4.3324,-4.3297,-4.3272,-4.3238,-4.3529,-4.353,-4.3738,-4.374,-4.3742]},{"header":{"parameterUnit":"m.s-1","parameterCategory":1,"la1":30.2991,"la2":30.254,"lo1":-89.0895,"lo2":-89.0444,"dy":0.0017,"dx":0.0017,"nx":28,"ny":28,"refTime":"2025-02-24T03:00:00:Z","depth":0,"parameterNumber":3,"parameterNumberName":"V-component_of_WINDS"},"data":[0,0,0,0,0,0,0,0,0,0,0,0,0,0,0,0,0,0,0,0,0,0,0,0,0,0,0,0,0,0,0,0,0,0,0,0,0,0,0,0,0,0,0,0,0,0,0,0,0,0,0,0,0,0,0,0,0,0,-4.092,-4.092,0,-4.0907,-4.0907,-4.0906,-4.0819,-4.0817,-4.0815,-4.0813,-4.08,-4.0802,-4.0803,0,0,0,0,0,0,0,0,0,0,0,0,0,-4.0872,-4.0873,-4.092,-4.092,-4.092,-4.0907,-4.0907,-4.0906,-4.0819,-4.0817,-4.0814,-4.0812,-4.08,-4.0802,-4.0804,0,0,0,0,0,0,0,0,0,0,0,0,0,-4.0879,-4.0873,-4.0921,-4.0875,-4.0871,-4.0907,-4.0907,-4.0906,-4.082,-4.0817,-4.0814,-4.0811,-4.0799,-4.0801,-4.0804,-4.0883,0,0,-4.0811,-4.0812,0,0,0,0,0,0,0,0,-4.0879,-4.0881,-4.0882,-4.0878,-4.0874,-4.0861,-4.0885,-4.0899,-4.0821,-4.0839,-4.0813,-4.0809,-4.0823,-4.0823,-4.0828,-4.0882,-4.0882,-4.0812,-4.0813,-4.0814,-4.0815,0,0,0,0,0,0,0,-4.0878,-4.0881,-4.0915,-4.0882,-4.0877,-4.0855,-4.0853,-4.0887,-4.0849,-4.0837,-4.0831,-4.0831,-4.082,-4.0826,-4.0827,-4.0882,-4.0812,-4.0814,-4.0815,-4.0816,-4.0999,-4.1002,0,0,0,0,0,0,-4.0884,-4.0881,-4.0915,-4.0915,-4.0868,-4.0859,-4.0856,-4.0869,-4.0849,-4.0843,-4.0833,-4.0827,-4.0823,-4.0824,-4.0826,-4.0916,-4.0814,-4.0816,-4.0818,-4.0995,-4.0999,-4.1003,0,0,0,0,0,0,-4.0883,-4.0888,-4.0916,-4.0896,-4.0898,-4.0863,-4.0878,-4.087,-4.0875,-4.0846,-4.0838,-4.0846,-4.0821,-4.0823,-4.0869,-4.0915,-4.0818,-4.082,-4.0991,-4.0996,-4.1001,-4.1098,0,0,0,0,0,0,-4.0882,-4.0888,-4.0918,-4.0897,-4.0899,-4.0959,-4.0881,-4.0872,-4.088,-4.0871,-4.0855,-4.085,-4.0818,-4.0866,-4.0871,-4.0916,-4.0822,-4.0987,-4.0994,-4.1,-4.1091,-4.1106,-4.1119,0,0,0,0,0,-4.0881,-4.0946,-4.092,-4.0925,-4.0936,-4.0962,-4.0963,-4.0925,-4.0884,-4.0913,-4.0894,-4.085,-4.0909,-4.0871,-4.0877,-4.0923,-4.0984,-4.0992,-4.0999,-4.1085,-4.1103,-4.1119,0,0,0,0,0,0,-4.0974,-4.0943,-4.0913,-4.0974,-4.0971,-4.0947,-4.0983,-4.0946,-4.0956,-4.0947,-4.09,-4.0897,-4.095,-4.0941,-4.09,-4.0998,-4.0939,-4.0948,-4.1002,-4.1019,-4.1033,-4.1034,-4.0824,0,0,0,0,0,-4.1002,-4.1025,-4.0997,-4.1053,-4.1053,-4.1019,-4.1029,-4.1,-4.0995,-4.0994,-4.0978,-4.0975,-4.0993,-4.1006,-4.102,-4.1089,-4.1084,-4.1124,-4.1138,-4.115,-4.1158,-4.1193,-4.121,-4.1028,-4.1028,-4.1028,0,0,-4.1059,-4.1045,-4.1063,-4.1072,-4.1066,-4.1092,-4.1019,-4.1049,-4.1067,-4.0998,-4.1041,-4.1029,-4.1023,-4.1081,-4.1105,-4.1075,-4.1207,-4.1159,-4.1169,-4.1171,-4.1202,-4.122,-4.1235,-4.1033,-4.1032,-4.1031,0,0,-4.1177,-4.1169,-4.1214,-4.121,-4.1202,-4.1178,-4.1189,-4.117,-4.116,-4.1201,-4.115,-4.1171,-4.1203,-4.12,-4.1203,-4.1318,-4.1279,-4.1325,-4.1398,-4.1433,-4.1447,-4.146,-4.15,-4.1515,-4.1333,-4.1333,-4.1333,0,-4.1249,-4.1285,-4.1242,-4.1276,-4.1281,-4.1219,-4.1264,-4.1262,-4.126,-4.1265,-4.1231,-4.1268,-4.126,-4.1316,-4.1344,-4.1348,-4.1359,-4.1326,-4.1448,-4.146,-4.1471,-4.151,-4.1525,-4.1339,-4.1338,-4.1338,-4.1337,0,-4.1374,-4.14,-4.1438,-4.1436,-4.1445,-4.1485,-4.1448,-4.1462,-4.1432,-4.1412,-4.1455,-4.1443,-4.1453,-4.1464,-4.1436,-4.1516,-4.1497,-4.1457,-4.1396,-4.1495,-4.153,-4.1544,-4.1347,-4.1345,-4.1343,-4.1342,0,0,-4.1551,-4.1524,-4.1538,-4.1536,-4.1522,-4.1541,-4.1578,-4.1587,-4.16,-4.1601,-4.163,-4.1657,-4.1619,-4.1623,-4.1593,-4.1623,-4.1715,-4.1579,-4.1578,-4.1604,-4.1801,-4.1832,-4.1849,-4.1688,-4.1691,-4.1693,-4.1802,0,-4.1663,-4.1723,-4.1685,-4.1751,-4.1773,-4.1714,-4.1745,-4.174,-4.1723,-4.1739,-4.172,-4.174,-4.1688,-4.169,-4.1717,-4.1698,-4.1753,-4.1689,-4.1715,-4.1716,-4.1718,-4.1868,-4.19,-4.2004,-4.1815,-4.1817,-4.1819,0,-4.1802,-4.1807,-4.1875,-4.1855,-4.1863,-4.1892,-4.1897,-4.1914,-4.1907,-4.1891,-4.1895,-4.1857,-4.1891,-4.1832,-4.1878,-4.1835,-4.1843,-4.1835,-4.1838,-4.1839,-4.1773,-4.1872,-4.2036,-4.2051,-4.184,-4.1839,-4.1837,0,-4.1923,-4.1947,-4.199,-4.199,-4.1968,-4.199,-4.1982,-4.1971,-4.1979,-4.1984,-4.1988,-4.1998,-4.2003,-4.2011,-4.1976,-4.1936,-4.2027,-4.1965,-4.2015,-4.2016,-4.2037,-4.2036,-4.2204,-4.2043,-4.2043,-4.2043,-4.2042,0,-4.2052,-4.2096,-4.2044,-4.2071,-4.2118,-4.2073,-4.2121,-4.2107,-4.2098,-4.2121,-4.2071,-4.2093,-4.2047,-4.2065,-4.2039,-4.2081,-4.2084,-4.2072,-4.2065,-4.2076,-4.2078,-4.2081,-4.2073,-4.2047,-4.2046,-4.2045,-4.2044,0,-4.2195,-4.2163,-4.2206,-4.2181,-4.2175,-4.2211,-4.219,-4.2214,-4.2192,-4.2222,-4.2226,-4.2192,-4.2211,-4.2177,-4.2192,-4.2174,-4.2233,-4.2214,-4.2235,-4.2229,-4.2281,-4.2277,-4.2457,-4.2478,-4.2304,-4.2306,-4.2308,0,-4.228,-4.2312,-4.229,-4.2301,-4.2295,-4.2314,-4.2321,-4.2279,-4.2289,-4.2282,-4.2307,-4.2321,-4.233,-4.2362,-4.2339,-4.235,-4.2331,-4.2393,-4.2332,-4.2343,-4.2331,-4.233,-4.2332,-4.2406,-4.2408,-4.241,-4.2411,0,-4.2433,-4.2414,-4.2426,-4.2432,-4.2442,-4.2445,-4.2444,-4.2457,-4.2411,-4.2425,-4.2443,-4.2449,-4.2464,-4.2478,-4.2483,-4.2475,-4.2436,-4.243,-4.2442,-4.2455,-4.2465,-4.246,-4.2269,-4.2426,-4.2425,-4.2424,-4.2423,-4.2422,-4.2548,-4.2573,-4.2561,-4.2576,-4.2571,-4.2571,-4.2592,-4.2572,-4.2586,-4.2593,-4.2567,-4.2591,-4.2582,-4.2584,-4.2581,-4.2599,-4.2571,-4.2589,-4.2593,-4.2598,-4.2606,-4.2463,-4.26,-4.2599,-4.2599,-4.2598,-4.2598,0,-4.2698,-4.2687,-4.2701,-4.2701,-4.2712,-4.2673,-4.267,-4.2682,-4.2703,-4.2698,-4.2707,-4.2727,-4.2741,-4.2719,-4.2729,-4.2747,-4.273,-4.2751,-4.275,-4.2748,-4.2631,-4.2619,-4.2766,-4.2766,-4.2766,-4.2766,-4.2765,-4.2765,-4.2777,-4.2817,-4.2797,-4.2834,-4.2823,-4.2844,-4.2846,-4.2846,-4.2841,-4.2865,-4.2876,-4.2861,-4.2849,-4.2857,-4.2868,-4.2861,-4.2867,-4.2895,-4.2882,-4.2773,-4.2757,-4.2741,-4.273,-4.2897,-4.2897,-4.2998,-4.2999,-4.3]}]]